Regional Weather Roundup
Issued by NWS

Home | Current Version | Previous Version | Graphics & Text | Print | Product List | Glossary On
Versions: 1 2 3 4 5 6 7 8 9 10 11 12 13 14 15 16 17 18 19 20 21 22 23 24 25 26 27 28 29 30 31 32 33 34 35 36 37 38 39 40 41 42 43 44 45 46 47 48 49 50
000
ASUS43 KLMK 080110
RWRKY
KENTUCKY REGIONAL WEATHER ROUNDUP
NATIONAL WEATHER SERVICE LOUISVILLE KY
800 PM EST SUN FEB 07 2016

NOTE "FAIR" INDICATES FEW OR NO CLOUDS BELOW 12,000 FEET
WITH NO SIGNIFICANT WEATHER AND/OR OBSTRUCTIONS TO VISIBILITY.

KYZ001>023-026-027-061>063-070>075-080200-
WESTERN AND SOUTH CENTRAL KENTUCKY

CITY           SKY/WX    TMP DP  RH WIND       PRES   REMARKS
PADUCAH        MOCLDY    50  30  46 SW9G18    29.90F
HENDERSON      CLOUDY    48  30  49 SW10      29.88F
OWENSBORO      MOCLDY    44  32  63 SW7       29.90S
HOPKINSVILLE   MOCLDY    48  26  42 SW12      29.92F
BOWLING GREEN  PTCLDY    48  22  35 SW7       29.93F
GLASGOW        PTCLDY    42  21  42 SW3       29.93S
$$

KYZ024-025-028>034-038-045-046-053-080200-
NORTH CENTRAL KENTUCKY

CITY           SKY/WX    TMP DP  RH WIND       PRES   REMARKS
LOUISVILLE/SDF MOCLDY    49  20  31 S7        29.88F
LOUISVILLE/LOU CLEAR     48  21  34 S3        29.88F
FORT KNOX      PTCLDY    43  22  43 S7        29.87F
$$

KYZ035>037-039>044-047>052-055>060-089>105-080200-
NORTHEAST KENTUCKY

CITY           SKY/WX    TMP DP  RH WIND       PRES   REMARKS
LEXINGTON      PTCLDY    41  21  44 S8        29.90F
COVINGTON      MOCLDY    47  21  35 S8        29.85F
FRANKFORT      CLOUDY    44  21  40 S7        29.88F
$$

KYZ054-064>069-076>088-106>120-080200-
SOUTHEAST KENTUCKY

CITY           SKY/WX    TMP DP  RH WIND       PRES   REMARKS
JACKSON        CLEAR     46  19  34 SW3       29.91F
LONDON         CLEAR     41  21  44 W5        29.93S
SOMERSET       PTCLDY    43  21  42 CALM      29.94F
MIDDLESBORO    CLEAR     38  26  61 NW3       29.95F
MONTICELLO     MOCLDY    36  25  64 CALM      29.95F
$$




USA.gov is the U.S. government's official web portal to all federal, state and local government web resources and services.